This demonstration page uses our WeatherBlox Daily Observations layout. Learn more.

Left ArrowRight Arrow

30.21309, -93.2044

Hourly Observations for July 20, 2019

Temp ( °F °C ) Dew Point ( °F °C ) Humidity (%) Winds ( mph kmh ) Pressure ( in mb ) Visibility ( mi km ) Precip ( " mm )
12:15 am 00:15 Clear 78 25.3 76 24.7 96 96 E 8 13 30.01 1016 10 16 0.00 0.00
12:35 am 00:35 Clear 77 25.2 76 24.5 96 96 ESE 5 7 30.01 1016 10 16 0.00 0.00
12:55 am 00:55 Clear 77 25.2 76 24.6 96 96 SE 3 6 30.00 1016 10 16 0.00 0.00
1:15 am 01:15 Clear 77 25.2 76 24.7 97 97 SE 5 7 30.00 1016 10 16 0.00 0.00
1:35 am 01:35 Partly Cloudy 77 25.2 76 24.7 97 97 Calm 29.99 1016 10 16 0.00 0.00
1:55 am 01:55 Clear 78 25.4 77 24.9 97 97 SE 3 6 29.99 1016 10 16 0.00 0.00
2:15 am 02:15 Clear 77 25 76 24.5 97 97 SE 3 6 29.99 1016 10 16 0.00 0.00
2:35 am 02:35 Clear 77 25.1 76 24.7 98 98 Calm 29.99 1016 10 16 0.00 0.00
2:55 am 02:55 Clear 78 25.3 77 24.9 98 98 Calm 29.99 1016 10 16 0.00 0.00
3:15 am 03:15 Partly Cloudy 76 24.7 76 24.3 98 98 Calm 29.99 1016 7 11 0.00 0.00
3:35 am 03:35 Partly Cloudy 77 25 76 24.6 98 98 Calm 29.99 1016 10 16 0.00 0.00
3:55 am 03:55 Partly Cloudy 76 24.6 76 24.3 98 98 ESE 3 6 29.99 1016 10 16 0.00 0.00
4:15 am 04:15 Partly Cloudy 77 25 76 24.6 98 98 Calm 29.99 1016 10 16 0.00 0.00
4:35 am 04:35 Partly Cloudy 77 25 76 24.6 98 98 Calm 29.99 1016 10 16 0.00 0.00
4:55 am 04:55 Clear 77 25 76 24.6 98 98 Calm 29.99 1016 10 16 0.00 0.00
5:15 am 05:15 Clear 77 25 76 24.6 98 98 Calm 30.00 1016 10 16 0.00 0.00
5:35 am 05:35 Clear 77 24.8 76 24.4 98 98 Calm 30.00 1016 10 16 0.00 0.00
6:00 am 06:00 Mostly Clear 77 25 75 24 94 94 Calm 30.01 1016 10 16 0.00 0.00
6:45 am 06:45 Mostly Sunny 77 25 75 24 94 94 Calm 30.02 1017 10 16 0.00 0.00
7:50 am 07:50 Mostly Sunny 81 27 77 25 89 89 Calm 30.04 1017 10 16 0.00 0.00
8:55 am 08:55 Partly Cloudy 84 29 79 26 84 84 Calm 30.05 1018 10 16 0.00 0.00
9:50 am 09:50 Mostly Cloudy 86 30 77 25 75 75 SSE 6 9 30.05 1018 10 16 0.00 0.00
10:55 am 10:55 Mostly Cloudy 88 31 75 24 66 66 SSE 6 9 30.03 1017 10 16 0.00 0.00
11:55 am 11:55 Mostly Cloudy 90 32 73 23 59 59 Calm 30.04 1017 10 16 0.00 0.00
12:50 pm 12:50 Mostly Cloudy 91 33 75 24 59 59 SSE 7 11 30.02 1017 10 16 0.00 0.00
1:50 pm 13:50 Mostly Cloudy 91 33 75 24 59 59 S 7 11 29.99 1016 10 16 0.00 0.00
2:50 pm 14:50 Mostly Cloudy 93 34 73 23 53 53 S 7 11 29.98 1015 10 16 0.00 0.00
3:50 pm 15:50 Partly Cloudy 91 33 75 24 59 59 SSE 8 13 29.97 1015 10 16 0.00 0.00
4:50 pm 16:50 Partly Cloudy 91 33 75 24 59 59 S 10 17 29.96 1015 10 16 0.00 0.00
5:50 pm 17:50 Partly Cloudy 90 32 75 24 63 63 SSW 9 15 29.97 1015 10 16 0.00 0.00
6:50 pm 18:50 Mostly Sunny 86 30 75 24 70 70 S 10 17 29.96 1015 10 16 0.00 0.00
7:50 pm 19:50 Mostly Sunny 84 29 75 24 74 74 SE 5 7 29.97 1015 10 16 0.00 0.00
8:50 pm 20:50 Mostly Clear 81 27 77 25 89 89 E 8 13 29.97 1015 10 16 0.00 0.00
9:50 pm 21:50 Mostly Clear 79 26 77 25 94 94 E 8 13 29.97 1015 10 16 0.00 0.00
10:15 pm 22:15 Clear 79 26.1 77 24.8 93 93 E 8 13 29.97 1015 10 16 0.00 0.00
10:35 pm 22:35 Clear 80 26.6 77 24.8 90 90 ESE 8 13 29.97 1015 10 16 0.00 0.00
10:55 pm 22:55 Clear 80 26.5 77 24.8 90 90 ESE 8 13 29.97 1015 10 16 0.00 0.00
11:15 pm 23:15 Clear 79 26.1 76 24.7 92 92 ESE 5 7 29.98 1015 10 16 0.00 0.00
11:35 pm 23:35 Clear 78 25.8 77 24.8 94 94 ESE 8 13 29.97 1015 10 16 0.00 0.00
11:55 pm 23:55 Clear 79 25.9 77 25 95 95 ESE 8 13 29.97 1015 10 16 0.00 0.00

Powered by AerisWeather